Hourly Weather Golcovo

Today, 17 May, Monday

Time Temperature Precipitation Wind Pressure Humidity
00:00 +12°C° 0 mm 1 mps 747 mmHg 92%
01:00 +12°C° 0 mm 1 mps 747 mmHg 92%
02:00 +12°C° 0 mm 1 mps 747 mmHg 93%
03:00 +12°C° 0 mm 1 mps 747 mmHg 91%
04:00 +13°C° 0 mm 1 mps 748 mmHg 90%
05:00 +14°C° 0 mm 1 mps 748 mmHg 88%
06:00 +16°C° 0 mm 1 mps 748 mmHg 81%
07:00 +18°C° 0 mm 1 mps 748 mmHg 74%
08:00 +19°C° 0 mm 2 mps 748 mmHg 68%
09:00 +20°C° 0 mm 2 mps 748 mmHg 62%
10:00 +23°C° 0 mm 2 mps 748 mmHg 56%
11:00 +24°C° 0 mm 3 mps 748 mmHg 50%
12:00 +24°C° 0 mm 3 mps 748 mmHg 49%
13:00 +25°C° 0 mm 3 mps 748 mmHg 48%
14:00 +25°C° 0 mm 4 mps 747 mmHg 47%
15:00 +25°C° 0 mm 4 mps 747 mmHg 52%
16:00 +23°C° 0 mm 4 mps 747 mmHg 56%
17:00 +23°C° 0 mm 4 mps 747 mmHg 61%
18:00 +21°C° 0 mm 4 mps 746 mmHg 68%
19:00 +19°C° 0 mm 3 mps 746 mmHg 75%
20:00 +18°C° 0 mm 3 mps 746 mmHg 82%
21:00 +18°C° 0.1 mm 4 mps 746 mmHg 85%
22:00 +17°C° 0.1 mm 4 mps 745 mmHg 88%
23:00 +17°C° 0.1 mm 4 mps 745 mmHg 91%

Tomorrow, 18 May, Tuesday

Time Temperature Precipitation Wind Pressure Humidity
00:00 +17°C° 0 mm 4 mps 745 mmHg 93%
01:00 +17°C° 0 mm 3 mps 745 mmHg 94%
02:00 +16°C° 0 mm 3 mps 745 mmHg 95%
03:00 +17°C° 0 mm 3 mps 745 mmHg 92%
04:00 +17°C° 0 mm 3 mps 745 mmHg 90%
05:00 +17°C° 0 mm 4 mps 744 mmHg 87%
06:00 +19°C° 0 mm 4 mps 744 mmHg 78%
07:00 +21°C° 0 mm 4 mps 744 mmHg 70%
08:00 +22°C° 0 mm 5 mps 744 mmHg 61%
09:00 +25°C° 0 mm 5 mps 744 mmHg 56%
10:00 +26°C° 0 mm 5 mps 744 mmHg 51%
11:00 +27°C° 0 mm 6 mps 744 mmHg 46%
12:00 +28°C° 0 mm 6 mps 744 mmHg 45%
13:00 +29°C° 0 mm 6 mps 744 mmHg 45%
14:00 +29°C° 0 mm 6 mps 744 mmHg 44%
15:00 +28°C° 0 mm 6 mps 744 mmHg 47%
16:00 +28°C° 0 mm 6 mps 744 mmHg 49%
17:00 +27°C° 0 mm 6 mps 744 mmHg 51%
18:00 +26°C° 0 mm 5 mps 744 mmHg 55%
19:00 +23°C° 0 mm 5 mps 744 mmHg 59%
20:00 +22°C° 0 mm 5 mps 744 mmHg 63%
21:00 +21°C° 0 mm 5 mps 744 mmHg 65%
22:00 +20°C° 0 mm 4 mps 744 mmHg 68%
23:00 +19°C° 0 mm 4 mps 744 mmHg 70%

Day after tomorrow, 19 May, Wednesday

Time Temperature Precipitation Wind Pressure Humidity
00:00 +19°C° 0 mm 4 mps 744 mmHg 72%
01:00 +18°C° 0 mm 4 mps 744 mmHg 75%
02:00 +18°C° 0 mm 4 mps 744 mmHg 77%
03:00 +18°C° 0 mm 4 mps 744 mmHg 78%
04:00 +18°C° 0 mm 4 mps 744 mmHg 79%
05:00 +18°C° 0 mm 4 mps 744 mmHg 80%
06:00 +19°C° 0 mm 4 mps 744 mmHg 74%
07:00 +21°C° 0 mm 4 mps 744 mmHg 68%
08:00 +23°C° 0 mm 4 mps 744 mmHg 62%
09:00 +25°C° 0 mm 5 mps 744 mmHg 58%
10:00 +26°C° 0 mm 5 mps 744 mmHg 53%
11:00 +27°C° 0 mm 6 mps 744 mmHg 49%
12:00 +27°C° 0 mm 5 mps 744 mmHg 47%
13:00 +28°C° 0 mm 5 mps 744 mmHg 46%
14:00 +28°C° 0 mm 5 mps 744 mmHg 44%
15:00 +27°C° 0.1 mm 5 mps 744 mmHg 48%
16:00 +27°C° 0.1 mm 5 mps 743 mmHg 51%
17:00 +26°C° 0.1 mm 4 mps 743 mmHg 54%
18:00 +23°C° 0 mm 4 mps 743 mmHg 62%
19:00 +21°C° 0 mm 3 mps 744 mmHg 69%
20:00 +19°C° 0 mm 2 mps 744 mmHg 76%
21:00 +18°C° 0 mm 2 mps 744 mmHg 80%
22:00 +18°C° 0 mm 2 mps 744 mmHg 84%
23:00 +18°C° 0 mm 1 mps 744 mmHg 88%

20 May, Thursday

Time Temperature Precipitation Wind Pressure Humidity
00:00 +18°C° 0.2 mm 1 mps 744 mmHg 89%
01:00 +18°C° 0.2 mm 1 mps 744 mmHg 91%
02:00 +17°C° 0.2 mm 2 mps 744 mmHg 92%
03:00 +17°C° 0.1 mm 2 mps 744 mmHg 92%
04:00 +17°C° 0.1 mm 2 mps 744 mmHg 93%
05:00 +17°C° 0.1 mm 2 mps 744 mmHg 93%
06:00 +18°C° 0.1 mm 2 mps 744 mmHg 91%
07:00 +19°C° 0.1 mm 2 mps 744 mmHg 89%
08:00 +20°C° 0.1 mm 2 mps 744 mmHg 86%
09:00 +21°C° 0 mm 3 mps 743 mmHg 76%
10:00 +23°C° 0 mm 4 mps 743 mmHg 65%
11:00 +26°C° 0 mm 5 mps 742 mmHg 54%
12:00 +26°C° 0.1 mm 5 mps 742 mmHg 55%
13:00 +27°C° 0.1 mm 6 mps 742 mmHg 56%
14:00 +27°C° 0.1 mm 6 mps 741 mmHg 57%
15:00 +24°C° 0.8 mm 6 mps 741 mmHg 64%
16:00 +23°C° 0.8 mm 6 mps 741 mmHg 70%
17:00 +21°C° 0.8 mm 6 mps 741 mmHg 77%
18:00 +20°C° 0.2 mm 6 mps 741 mmHg 81%
19:00 +19°C° 0.2 mm 5 mps 741 mmHg 84%
20:00 +17°C° 0.2 mm 5 mps 741 mmHg 88%
21:00 +17°C° 0 mm 4 mps 741 mmHg 90%
22:00 +15°C° 0 mm 4 mps 741 mmHg 93%
23:00 +14°C° 0 mm 3 mps 741 mmHg 95%

21 May, Friday

Time Temperature Precipitation Wind Pressure Humidity
00:00 +14°C° 0 mm 3 mps 741 mmHg 95%
01:00 +13°C° 0 mm 4 mps 741 mmHg 95%
02:00 +13°C° 0 mm 4 mps 741 mmHg 95%
03:00 +13°C° 0 mm 4 mps 741 mmHg 91%
04:00 +13°C° 0 mm 4 mps 741 mmHg 86%
05:00 +13°C° 0 mm 4 mps 741 mmHg 82%
06:00 +14°C° 0 mm 5 mps 741 mmHg 79%
07:00 +15°C° 0 mm 5 mps 741 mmHg 76%
08:00 +16°C° 0 mm 6 mps 741 mmHg 73%
09:00 +15°C° 0.2 mm 5 mps 741 mmHg 77%
10:00 +15°C° 0.2 mm 5 mps 741 mmHg 81%
11:00 +14°C° 0.2 mm 5 mps 740 mmHg 85%
12:00 +14°C° 0.7 mm 5 mps 740 mmHg 88%
13:00 +13°C° 0.7 mm 5 mps 740 mmHg 91%
14:00 +12°C° 0.7 mm 4 mps 739 mmHg 93%
15:00 +13°C° 0.4 mm 4 mps 739 mmHg 90%
16:00 +13°C° 0.4 mm 5 mps 739 mmHg 86%
17:00 +13°C° 0.4 mm 5 mps 739 mmHg 83%
18:00 +12°C° 0.1 mm 4 mps 739 mmHg 84%
19:00 +10°C° 0.1 mm 4 mps 739 mmHg 86%
20:00 +8°C° 0.1 mm 4 mps 739 mmHg 87%
21:00 +8°C° 0.1 mm 4 mps 739 mmHg 89%
22:00 +7°C° 0.1 mm 4 mps 739 mmHg 91%
23:00 +8°C° 0.1 mm 3 mps 739 mmHg 93%

22 May, Saturday

Time Temperature Precipitation Wind Pressure Humidity
00:00 +7°C° 0.1 mm 4 mps 739 mmHg 93%
01:00 +7°C° 0.1 mm 4 mps 740 mmHg 92%
02:00 +7°C° 0.1 mm 5 mps 740 mmHg 92%
03:00 +7°C° 0.1 mm 5 mps 740 mmHg 92%
04:00 +7°C° 0.1 mm 5 mps 741 mmHg 92%
05:00 +7°C° 0.1 mm 6 mps 741 mmHg 91%
06:00 +8°C° 0.1 mm 6 mps 742 mmHg 90%
07:00 +8°C° 0.1 mm 6 mps 742 mmHg 90%
08:00 +8°C° 0.1 mm 6 mps 743 mmHg 89%
09:00 +9°C° 0.1 mm 6 mps 743 mmHg 83%
10:00 +10°C° 0.1 mm 6 mps 744 mmHg 78%
11:00 +10°C° 0.1 mm 6 mps 744 mmHg 72%
12:00 +12°C° 0 mm 5 mps 745 mmHg 70%
13:00 +12°C° 0 mm 5 mps 745 mmHg 68%
14:00 +12°C° 0 mm 5 mps 746 mmHg 66%
15:00 +12°C° 0 mm 4 mps 746 mmHg 64%
16:00 +13°C° 0 mm 4 mps 746 mmHg 63%
17:00 +13°C° 0 mm 4 mps 746 mmHg 61%
18:00 +12°C° 0 mm 3 mps 747 mmHg 65%
19:00 +11°C° 0 mm 3 mps 747 mmHg 70%
20:00 +10°C° 0 mm 2 mps 747 mmHg 75%
21:00 +9°C° 0 mm 2 mps 748 mmHg 79%
22:00 +8°C° 0 mm 2 mps 748 mmHg 83%
23:00 +7°C° 0 mm 2 mps 749 mmHg 87%
Show more